Погода в Тамбовке

Россия / Амурская область     50°05′56″N   128°03′39″E
темп.,
°C
ветер,
м/с
пор.,
м/с
влажн.,
%
обл.,
%
осадки,
мм/ч
давл.,
гПа
погр.,
м
26 февраля, пт
пт2600:00−23з119943 0.0 103120
03:00−24з119922 0.0 103020
06:00−24ссв0110036 0.0 103220
09:00−23ссз22950 0.0 103338
12:00−18ссз23880 0.0 1034242
15:00−16с128412 0.0 1033346
18:00−20юв1193100 0.0 103420
21:00−20ююв2290100 0.0 103520
27 февраля, сб
сб2700:00−20ююв2391100 0.0 103529
03:00−20юв3592100 0.0 1032132
06:00−19юв5990100 0.0 1030242
09:00−18юв61186100 0.0 1025274
12:00−15юв71290100 0.3 1020324
15:00−8юв71383100 0.3 1013588
18:00−5ююз61395100 1.6 1011848
21:00−4юз3997100 5.3 1011512
28 февраля, вс
вс2800:00−8зсз4989100 0.1 1013263
03:00−12сз6138383 0.1 1018424
06:00−19зсз44840 0.0 102272
09:00−17з49830 0.0 1025254
12:00−13зсз58710 0.0 1026944
15:00−12сз58700 0.0 10261386
18:00−16зсз347951 0.0 102833
21:00−19ссз468174 0.0 103297
1 марта, пн
пн100:00−22зсз34830 0.0 103346
03:00−24з34830 0.0 103527
06:00−24з238155 0.0 103520
09:00−21з498577 0.0 1036357
12:00−17сз58700 0.0 10351115
15:00−16сз476826 0.0 10341392
18:00−19сз1181100 0.0 103420
21:00−22юз118899 0.0 103520
2 марта, вт
вт200:00−23ююз128642 0.0 103420
03:00−23ю228771 0.0 103320
06:00−25ю1110093 0.0 103320
09:00−23св009994 0.0 103220
12:00−19в1191100 0.1 1030307
15:00−17в2287100 0.1 1028338
18:00−20в239498 0.0 102825
21:00−20всв239899 0.1 102838